APRIZESAT 7

Last updated on Tue Sep 22 2026 00:03:51 GMT+0000 (Coordinated Universal Time)

1 39416U 13066A 26264.41474583 .00000877 00000+0 91831-4 0 9992 2 39416 97.7811 216.3096 0034175 251.7095 108.0404 14.91758294695573
UTC large
Height (km)
Speed (km/s)
/
Latitude / Longitude
Inclination (degrees)
Orbital Period (minutes)
Azimuth
Elevation
Range (km)
Doppler Factor

Next 0 passes for location: London (51.5072 / 0.1276)

No passes found over London.
APRIZESAT 7